Weather History for Russellville, AR

Change the Weather History Date:

Saturday, December 8, 2012

  Actual Average (KHOT) Record (KHOT)
Temperature  
Mean Temperature 58 °F -  
Max Temperature 64 °F 53 °F 74 °F (1952)
Min Temperature 53 °F 34 °F 16 °F (2006)
Degree Days  
Heating Degree Days 6    
Growing Degree Days 8 (Base 50)    
Moisture  
Dew Point 54 °F    
Average Humidity 89    
Maximum Humidity 100    
Minimum Humidity 72    
Precipitation  
Precipitation 0.00 in - - ()
Sea Level Pressure  
Sea Level Pressure 29.86 in    
Wind  
Wind Speed 0 mph (NNW)    
Max Wind Speed 6 mph    
Max Gust Speed -    
Visibility 5 miles    
Events      
Averages and records for this station are not official NWS values.
T = Trace of Precipitation, MM = Missing Value Source: NWS Daily Summary

Daily Weather History Graph

Daily Weather History Graph

Search for Another Location

Airport:

Trip Planner

Search our weather history database for the weather conditions in past years. The results will help you decide how hot, cold, wet, or windy it might be!

Date:

Astronomy

Dec. 08, 2012 Rise Set
Actual Time 7:08 AM CST 5:00 PM CST
Civil Twilight 6:40 AM CST 5:28 PM CST
Nautical Twilight 6:09 AM CST 5:59 PM CST
Astronomical Twilight 5:38 AM CST 6:30 PM CST
Moon 1:43 AM CST (12/8) 1:22 PM CST (12/8)
Length of Visible Light 10h 47m
Length of Day
9h 51m
Waning Crescent, 28% of the Moon is Illuminated
Dec 8
Waning Crescent
Dec 13
New
Dec 19
First Quarter
Dec 28
Full
Jan 4
Last Quarter

Hourly Weather History & Observations

Time (CST) Temp. Dew Point Humidity Pressure Visibility Wind Dir Wind Speed Gust Speed Precip Events Conditions
12:53 AM 57.9 °F 55.0 °F 90% 29.85 in 6.0 mi Calm Calm - N/A   Overcast
1:10 AM 57.2 °F 55.4 °F 94% 29.86 in 6.0 mi Calm Calm - N/A   Overcast
1:53 AM 57.9 °F 54.0 °F 87% 29.84 in 6.0 mi Calm Calm - N/A   Overcast
2:53 AM 55.0 °F 54.0 °F 96% 29.85 in 5.0 mi Calm Calm - N/A   Overcast
3:43 AM 53.6 °F 51.8 °F 94% 29.85 in 3.0 mi Calm Calm - N/A   Mostly Cloudy
3:53 AM 53.1 °F 52.0 °F 96% 29.84 in 3.0 mi Calm Calm - N/A   Mostly Cloudy
4:06 AM 53.6 °F 51.8 °F 94% 29.86 in 2.5 mi Calm Calm - N/A   Scattered Clouds
4:18 AM 53.6 °F 51.8 °F 94% 29.86 in 2.0 mi Calm Calm - N/A   Mostly Cloudy
4:29 AM 53.6 °F 51.8 °F 94% 29.86 in 3.0 mi Calm Calm - N/A   Overcast
4:32 AM 53.6 °F 51.8 °F 94% 29.86 in 2.5 mi Calm Calm - N/A   Overcast
4:41 AM 53.6 °F 51.8 °F 94% 29.86 in 4.0 mi Calm Calm - N/A   Overcast
4:53 AM 53.1 °F 52.0 °F 96% 29.85 in 4.0 mi Calm Calm - N/A   Overcast
5:02 AM 53.6 °F 51.8 °F 94% 29.86 in 4.0 mi Calm Calm - N/A   Overcast
5:43 AM 53.6 °F 51.8 °F 94% 29.88 in 4.0 mi Calm Calm - N/A   Overcast
5:53 AM 54.0 °F 52.0 °F 93% 29.86 in 4.0 mi Calm Calm - N/A   Overcast
6:35 AM 53.6 °F 53.6 °F 100% 29.89 in 3.0 mi Calm Calm - N/A   Overcast
6:53 AM 54.0 °F 53.1 °F 97% 29.89 in 4.0 mi Calm Calm - N/A   Overcast
7:13 AM 53.6 °F 51.8 °F 94% 29.90 in 2.5 mi Calm Calm - N/A   Overcast
7:40 AM 53.6 °F 53.6 °F 100% 29.91 in 2.5 mi Calm Calm - N/A   Overcast
7:51 AM 55.4 °F 53.6 °F 94% 29.91 in 3.0 mi NW 3.5 mph - N/A   Overcast
7:53 AM 55.0 °F 53.1 °F 93% 29.90 in 3.0 mi WNW 3.5 mph - N/A   Overcast
8:10 AM 55.4 °F 53.6 °F 94% 29.91 in 3.0 mi WNW 3.5 mph - N/A   Overcast
8:21 AM 55.4 °F 53.6 °F 94% 29.91 in 2.5 mi Calm Calm - N/A   Overcast
8:53 AM 55.9 °F 54.0 °F 93% 29.91 in 2.5 mi WNW 4.6 mph - N/A   Overcast
9:43 AM 57.2 °F 55.4 °F 94% 29.92 in 3.0 mi Calm Calm - N/A   Overcast
9:53 AM 57.0 °F 55.0 °F 93% 29.91 in 3.0 mi Calm Calm - N/A   Overcast
10:06 AM 57.2 °F 53.6 °F 88% 29.93 in 3.0 mi Calm Calm - N/A   Overcast
10:53 AM 57.9 °F 54.0 °F 87% 29.91 in 4.0 mi Calm Calm - N/A   Overcast
11:53 AM 60.1 °F 54.0 °F 80% 29.88 in 5.0 mi Calm Calm - N/A   Haze
12:11 PM 60.8 °F 53.6 °F 77% 29.88 in 5.0 mi Calm Calm - N/A   Haze
12:23 PM 62.6 °F 53.6 °F 72% 29.88 in 6.0 mi Calm Calm - N/A   Haze
12:53 PM 62.1 °F 54.0 °F 75% 29.86 in 6.0 mi Variable 3.5 mph - N/A   Haze
1:53 PM 63.0 °F 54.0 °F 72% 29.84 in 6.0 mi Calm Calm - N/A   Haze
2:53 PM 64.0 °F 55.0 °F 73% 29.83 in 7.0 mi Calm Calm - N/A   Overcast
3:53 PM 64.0 °F 55.0 °F 73% 29.82 in 7.0 mi Calm Calm - N/A   Overcast
4:22 PM 64.4 °F 55.4 °F 73% 29.83 in 7.0 mi Calm Calm - N/A   Mostly Cloudy
4:53 PM 61.0 °F 55.0 °F 81% 29.82 in 7.0 mi Calm Calm - N/A   Clear
5:53 PM 55.9 °F 54.0 °F 93% 29.82 in 6.0 mi Calm Calm - N/A   Mostly Cloudy
6:49 PM 57.2 °F 53.6 °F 88% 29.83 in 6.0 mi Calm Calm - N/A   Mostly Cloudy
6:53 PM 57.0 °F 54.0 °F 89% 29.83 in 6.0 mi Calm Calm - N/A   Mostly Cloudy
7:23 PM 60.8 °F 55.4 °F 82% 29.84 in 8.0 mi Calm Calm - N/A   Overcast
7:34 PM 62.6 °F 57.2 °F 82% 29.84 in 8.0 mi East 4.6 mph - N/A   Overcast
7:48 PM 62.6 °F 57.2 °F 82% 29.84 in 8.0 mi East 4.6 mph - N/A   Overcast
7:53 PM 63.0 °F 57.0 °F 81% 29.82 in 8.0 mi East 5.8 mph - N/A   Overcast
8:53 PM 62.1 °F 57.9 °F 86% 29.82 in 7.0 mi Calm Calm - N/A   Overcast
9:53 PM 62.1 °F 59.0 °F 90% 29.82 in 6.0 mi Calm Calm - N/A   Mostly Cloudy
10:05 PM 62.6 °F 59.0 °F 88% 29.83 in 6.0 mi Calm Calm - N/A   Mostly Cloudy
10:28 PM 62.6 °F 59.0 °F 88% 29.83 in 5.0 mi Calm Calm - N/A   Mostly Cloudy
10:53 PM 62.1 °F 59.0 °F 90% 29.82 in 5.0 mi Calm Calm - N/A   Overcast
11:53 PM 62.1 °F 59.0 °F 90% 29.80 in 4.0 mi Calm Calm - N/A   Mostly Cloudy